Brainerd, MN

3:25 PM CST on November 20, 2017 (GMT -0600)
Brainerd-Crow Wing County Regional

Weather History for KBRD - October, 2012

Change the Weather History Date:

Tuesday, October 9, 2012

  Actual Average Record
Temperature  
Mean Temperature 40 °F 48 °F  
Max Temperature 45 °F 58 °F 83 °F (1938)
Min Temperature 35 °F 38 °F 21 °F (2000)
Degree Days  
Heating Degree Days 24 17  
Month to date heating degree days 137  
Cooling Degree Days 0 0  
Month to date cooling degree days 0  
Moisture  
Dew Point 30 °F    
Average Humidity 66    
Maximum Humidity 86    
Minimum Humidity 49    
Precipitation  
Precipitation 0.01 in 0.11 in 2.28 in (1970)
Month to date precipitation 1.01  
Snow  
Snow 0.00 in 0.00 in - ()
Month to date snowfall 0.0  
Snow Depth -    
Sea Level Pressure  
Sea Level Pressure 29.80 in    
Wind  
Wind Speed 10 mph (West)    
Max Wind Speed 24 mph    
Max Gust Speed 29 mph    
Visibility 10 miles    
Events Rain    
T = Trace of Precipitation, MM = Missing Value Source: NWS Daily Summary

Daily Weather History Graph

Daily Weather History Graph

Search for Another Location

Airport or City:

Trip Planner

Search our weather history database for the weather conditions in past years. The results will help you decide how hot, cold, wet, or windy it might be!

Date:

Astronomy

Oct. 09, 2012 Rise Set
Actual Time 7:26 AM CDT 6:40 PM CDT
Civil Twilight 6:56 AM CDT 7:10 PM CDT
Nautical Twilight 6:21 AM CDT 7:44 PM CDT
Astronomical Twilight 5:46 AM CDT 8:19 PM CDT
Moon 12:43 AM CDT (10/9) 3:26 PM CDT (10/9)
Length of Visible Light 12h 13m
Length of Day
11h 13m
Last Quarter, 36% of the Moon is Illuminated
Oct 9
Last Quarter
Oct 15
New
Oct 21
First Quarter
Oct 29
Full
Nov 6
Last Quarter

Hourly Weather History & Observations

Time (CDT) Temp. Windchill Dew Point Humidity Pressure Visibility Wind Dir Wind Speed Gust Speed Precip Events Conditions
12:53 AM 39.0 °F 34.8 °F 35.1 °F 86% 29.70 in 10.0 mi SSW 5.8 mph - N/A   Clear
1:53 AM 39.0 °F 35.7 °F 35.1 °F 86% 29.71 in 10.0 mi SSW 4.6 mph - N/A   Clear
3:53 AM 43.0 °F 38.8 °F 34.0 °F 71% 29.70 in 10.0 mi West 6.9 mph - N/A   Overcast
4:53 AM 42.1 °F 38.4 °F 33.1 °F 70% 29.71 in 10.0 mi West 5.8 mph - N/A   Partly Cloudy
5:53 AM 39.0 °F 34.0 °F 32.0 °F 76% 29.71 in 10.0 mi WSW 6.9 mph - N/A   Clear
6:53 AM 39.9 °F 32.9 °F 30.9 °F 70% 29.73 in 10.0 mi WSW 11.5 mph - N/A   Scattered Clouds
7:53 AM 39.0 °F 32.8 °F 28.9 °F 67% 29.73 in 10.0 mi West 9.2 mph - N/A   Clear
8:53 AM 39.9 °F 32.5 °F 28.9 °F 65% 29.74 in 10.0 mi West 12.7 mph 18.4 mph N/A   Clear
9:53 AM 42.1 °F 34.5 °F 28.0 °F 58% 29.75 in 10.0 mi West 15.0 mph - N/A   Overcast
10:53 AM 42.1 °F 35.7 °F 28.0 °F 58% 29.76 in 10.0 mi West 11.5 mph - N/A   Overcast
11:41 AM 42.8 °F 36.2 °F 30.2 °F 61% 29.74 in 10.0 mi West 12.7 mph - 0.00 in Rain Light Rain
11:53 AM 42.1 °F 35.7 °F 30.9 °F 65% 29.78 in 10.0 mi West 11.5 mph - 0.00 in Rain Light Rain
12:00 PM 42.8 °F 35.4 °F 30.2 °F 61% 29.74 in 10.0 mi West 15.0 mph 20.7 mph 0.00 in Rain Light Rain
12:53 PM 43.0 °F 35.4 °F 30.0 °F 60% 29.78 in 10.0 mi West 16.1 mph 21.9 mph 0.00 in   Overcast
1:22 PM 42.8 °F 36.2 °F 30.2 °F 61% 29.75 in 10.0 mi West 12.7 mph 19.6 mph N/A   Overcast
1:33 PM 42.8 °F 35.8 °F 30.2 °F 61% 29.75 in 10.0 mi West 13.8 mph 20.7 mph N/A   Overcast
1:53 PM 43.0 °F 36.4 °F 30.9 °F 62% 29.79 in 10.0 mi WNW 12.7 mph 20.7 mph N/A   Overcast
2:53 PM 45.0 °F 38.5 °F 32.0 °F 60% 29.80 in 10.0 mi NW 13.8 mph 23.0 mph 0.00 in   Overcast
3:00 PM 44.6 °F 37.4 °F 30.2 °F 57% 29.78 in 10.0 mi NW 16.1 mph 26.5 mph N/A   Overcast
3:51 PM 39.2 °F 31.2 °F 32.0 °F 75% 29.81 in 5.0 mi WNW 13.8 mph 27.6 mph 0.01 in Rain Light Rain
3:53 PM 39.9 °F 32.1 °F 32.0 °F 73% 29.84 in 5.0 mi WNW 13.8 mph 27.6 mph 0.01 in Rain Light Rain
4:53 PM 43.0 °F 33.5 °F 25.0 °F 49% 29.86 in 10.0 mi NW 24.2 mph 28.8 mph 0.00 in   Mostly Cloudy
5:53 PM 41.0 °F 32.8 °F 24.1 °F 51% 29.89 in 10.0 mi WNW 16.1 mph 23.0 mph N/A   Mostly Cloudy
6:53 PM 39.9 °F 33.4 °F 24.1 °F 53% 29.91 in 10.0 mi WNW 10.4 mph - N/A   Scattered Clouds
7:53 PM 39.0 °F 31.8 °F 27.0 °F 62% 29.94 in 10.0 mi WNW 11.5 mph - N/A   Clear
8:53 PM 37.0 °F 30.4 °F 27.0 °F 67% 29.96 in 10.0 mi West 9.2 mph - N/A   Clear
9:53 PM 36.0 °F 28.0 °F 27.0 °F 70% 29.98 in 10.0 mi WNW 11.5 mph 19.6 mph N/A   Clear
10:53 PM 36.0 °F 29.0 °F 28.0 °F 73% 29.99 in 10.0 mi WNW 9.2 mph - N/A   Mostly Cloudy
11:53 PM 35.1 °F 28.6 °F 28.0 °F 76% 29.99 in 10.0 mi WNW 8.1 mph - N/A   Partly Cloudy